2024-247N

Last updated on Fri Jan 17 2025 00:02:04 GMT+0000 (Coordinated Universal Time)

1 62389U 24247N 25015.68520450 -.00099926 00000+0 -56950-2 0 9993 2 62389 44.9934 225.5315 0001447 184.0115 176.0750 15.12598182 3979
UTC large
Height (km)
Speed (km/s)
/
Latitude / Longitude
Inclination (degrees)
Orbital Period (minutes)
Azimuth
Elevation
Range (km)
Doppler Factor

Next 0 passes for location: London (51.5072 / 0.1276)

Sorry there are no passes over London.